| time (UTC) | temp C | wind direction | speed KPH | gust KPH | rain 1hr cm | rain 24hr cm | rain mn cm | humidity % | barometer mb |
| 20260503052905 | 14 | 0.0 | 0.0 | 0.00 | 0.00 | 0.00 | 65 | 1017.4 | |
| 20260503051905 | 14 | 0.0 | 0.0 | 0.00 | 0.00 | 0.00 | 65 | 1017.3 | |
| 20260503050905 | 13 | 0.0 | 0.0 | 0.00 | 0.00 | 0.00 | 64 | 1017.0 | |
| 20260503045904 | 13 | 0.0 | 0.0 | 0.00 | 0.00 | 0.00 | 64 | 1017.4 | |
| 20260503044905 | 13 | 0.0 | 0.0 | 0.00 | 0.00 | 0.00 | 63 | 1017.6 | |
| 20260503043904 | 13 | 0.0 | 0.0 | 0.00 | 0.00 | 0.00 | 63 | 1017.5 | |
| 20260503042905 | 13 | 0.0 | 0.0 | 0.00 | 0.00 | 0.00 | 63 | 1017.5 | |
| 20260503041904 | 13 | 0.0 | 0.0 | 0.00 | 0.00 | 0.00 | 63 | 1017.6 | |
| 20260503040905 | 13 | 0.0 | 0.0 | 0.00 | 0.00 | 0.00 | 63 | 1017.3 | |
| 20260503035904 | 14 | 0.0 | 0.0 | 0.00 | 0.00 | 0.00 | 62 | 1017.3 | |
| 20260503034904 | 14 | 0.0 | 0.0 | 0.00 | 0.00 | 0.00 | 62 | 1017.5 | |
| 20260503033904 | 14 | 0.0 | 0.0 | 0.00 | 0.00 | 0.00 | 62 | 1017.2 | |
| 20260503032909 | 14 | 0.0 | 0.0 | 0.00 | 0.00 | 0.00 | 62 | 1017.5 | |
| 20260503025909 | 15 | 0.0 | 0.0 | 0.00 | 0.00 | 0.00 | 62 | 1017.4 | |
| 20260503023904 | 15 | 0.0 | 0.0 | 0.00 | 0.00 | 0.00 | 62 | 1017.4 | |
| 20260503022904 | 15 | 0.0 | 0.0 | 0.00 | 0.00 | 0.00 | 62 | 1017.4 | |
| 20260503021904 | 15 | 0.0 | 0.0 | 0.00 | 0.00 | 0.00 | 62 | 1017.5 | |
| 20260503020904 | 15 | 0.0 | 0.0 | 0.00 | 0.00 | 0.00 | 62 | 1017.5 | |
| 20260503015905 | 15 | 0.0 | 0.0 | 0.00 | 0.00 | 0.00 | 61 | 1017.5 | |
| 20260503014905 | 15 | 0.0 | 0.0 | 0.00 | 0.00 | 0.00 | 61 | 1017.7 | |
| 20260503013904 | 15 | 0.0 | 0.0 | 0.00 | 0.00 | 0.00 | 61 | 1017.6 | |
| 20260503012904 | 15 | 0.0 | 0.0 | 0.00 | 0.00 | 0.00 | 61 | 1017.7 | |
| 20260503011904 | 15 | 0.0 | 0.0 | 0.00 | 0.00 | 0.00 | 60 | 1017.6 | |
| 20260503010912 | 15 | 0.0 | 0.0 | 0.00 | 0.00 | 0.00 | 61 | 1017.6 | |
| 20260503004903 | 16 | 0.0 | 0.0 | 0.00 | 0.00 | 0.00 | 60 | 1017.7 | |
| 20260503003904 | 16 | 0.0 | 0.0 | 0.00 | 0.00 | 0.00 | 60 | 1017.8 | |
| 20260503002905 | 16 | 0.0 | 0.0 | 0.00 | 0.00 | 0.00 | 59 | 1017.8 | |
| 20260503001909 | 16 | 0.0 | 0.0 | 0.00 | 0.00 | 0.00 | 59 | 1017.9 | |
| 20260502235906 | 16 | 0.0 | 0.0 | 0.00 | 0.00 | 0.00 | 59 | 1018.1 | |
| 20260502234905 | 16 | 0.0 | 0.0 | 0.00 | 0.00 | 0.00 | 58 | 1018.0 | |
| 20260502233905 | 16 | 0.0 | 0.0 | 0.00 | 0.00 | 0.00 | 58 | 1018.2 | |
| 20260502232905 | 16 | 0.0 | 0.0 | 0.00 | 0.00 | 0.00 | 58 | 1018.1 | |
| 20260502231905 | 16 | 0.0 | 0.0 | 0.00 | 0.00 | 0.00 | 58 | 1018.1 | |
| 20260502230905 | 17 | 0.0 | 0.0 | 0.00 | 0.00 | 0.00 | 57 | 1018.2 | |
| 20260502225905 | 17 | 0.0 | 0.0 | 0.00 | 0.00 | 0.00 | 57 | 1018.3 | |
| 20260502224906 | 17 | 0.0 | 0.0 | 0.00 | 0.00 | 0.00 | 57 | 1018.2 | |
| 20260502223907 | 17 | 0.0 | 0.0 | 0.00 | 0.00 | 0.00 | 57 | 1018.2 | |
| 20260502222906 | 17 | 0.0 | 0.0 | 0.00 | 0.00 | 0.00 | 57 | 1018.0 | |
| 20260502221906 | 17 | 0.0 | 0.0 | 0.00 | 0.00 | 0.00 | 57 | 1018.1 | |
| 20260502220915 | 17 | 0.0 | 0.0 | 0.00 | 0.00 | 0.00 | 56 | 1018.1 | |
| 20260502214906 | 18 | 0.0 | 0.0 | 0.00 | 0.00 | 0.00 | 55 | 1018.0 | |
| 20260502213904 | 18 | 0.0 | 0.0 | 0.00 | 0.00 | 0.00 | 54 | 1018.1 | |
| 20260502212904 | 18 | 0.0 | 0.0 | 0.00 | 0.00 | 0.00 | 54 | 1018.1 | |
| 20260502211909 | 18 | 0.0 | 0.0 | 0.00 | 0.00 | 0.00 | 53 | 1018.2 | |
| 20260502205906 | 19 | 0.0 | 0.0 | 0.00 | 0.00 | 0.00 | 52 | 1018.2 | |
| 20260502204906 | 19 | 0.0 | 0.0 | 0.00 | 0.00 | 0.00 | 52 | 1018.1 | |
| 20260502203904 | 20 | 0.0 | 0.0 | 0.00 | 0.00 | 0.00 | 52 | 1018.1 | |
| 20260502202906 | 20 | 0.0 | 0.0 | 0.00 | 0.00 | 0.00 | 51 | 1018.2 | |
| 20260502201906 | 20 | 0.0 | 0.0 | 0.00 | 0.00 | 0.00 | 51 | 1018.2 | |
| 20260502200906 | 20 | 0.0 | 0.0 | 0.00 | 0.00 | 0.00 | 50 | 1018.2 | |
| 20260502195905 | 20 | 0.0 | 0.0 | 0.00 | 0.00 | 0.00 | 48 | 1018.2 | |
| 20260502194904 | 21 | 0.0 | 0.0 | 0.00 | 0.00 | 0.00 | 48 | 1018.2 | |
| 20260502193904 | 21 | 0.0 | 0.0 | 0.00 | 0.00 | 0.00 | 48 | 1018.3 | |
| 20260502192903 | 21 | 0.0 | 0.0 | 0.00 | 0.00 | 0.00 | 47 | 1018.2 | |
| 20260502191903 | 21 | 0.0 | 0.0 | 0.00 | 0.00 | 0.00 | 46 | 1018.2 | |
| 20260502190906 | 22 | 0.0 | 0.0 | 0.00 | 0.00 | 0.00 | 45 | 1018.0 | |
| 20260502185912 | 22 | 0.0 | 0.0 | 0.00 | 0.00 | 0.00 | 44 | 1018.1 | |
| 20260502183904 | 23 | 0.0 | 0.0 | 0.00 | 0.00 | 0.00 | 40 | 1017.8 | |
| 20260502182905 | 23 | 0.0 | 0.0 | 0.00 | 0.00 | 0.00 | 39 | 1017.9 | |
| 20260502181910 | 23 | 0.0 | 0.0 | 0.00 | 0.00 | 0.00 | 39 | 1017.8 | |
| 20260502163905 | 28 | 0.0 | 0.0 | 0.00 | 0.00 | 0.00 | 28 | 1017.7 | |
| 20260502162905 | 28 | 0.0 | 0.0 | 0.00 | 0.00 | 0.00 | 28 | 1017.7 | |
| 20260502161909 | 28 | 0.0 | 0.0 | 0.00 | 0.00 | 0.00 | 28 | 1017.9 | |
| 20260502151905 | 31 | 0.0 | 0.0 | 0.00 | 0.00 | 0.00 | 24 | 1018.4 | |
| 20260502150904 | 31 | 0.0 | 0.0 | 0.00 | 0.00 | 0.00 | 24 | 1018.6 | |
| 20260502120904 | 31 | 0.0 | 0.0 | 0.00 | 0.00 | 0.00 | 26 | 1020.8 | |
| 20260502115905 | 28 | 0.0 | 0.0 | 0.00 | 0.00 | 0.00 | 28 | 1021.1 | |
| 20260502114905 | 30 | 0.0 | 0.0 | 0.00 | 0.00 | 0.00 | 27 | 1021.2 | |
| 20260502113905 | 28 | 0.0 | 0.0 | 0.00 | 0.00 | 0.00 | 29 | 1021.5 | |
| 20260502112904 | 27 | 0.0 | 0.0 | 0.00 | 0.00 | 0.00 | 29 | 1021.7 | |
| 20260502111903 | 27 | 0.0 | 0.0 | 0.00 | 0.00 | 0.00 | 30 | 1021.9 | |
| 20260502110904 | 26 | 0.0 | 0.0 | 0.00 | 0.00 | 0.00 | 31 | 1022.1 | |
| 20260502105909 | 25 | 0.0 | 0.0 | 0.00 | 0.00 | 0.00 | 33 | 1022.3 | |
| 20260502103906 | 23 | 0.0 | 0.0 | 0.00 | 0.00 | 0.00 | 36 | 1022.8 | |
| 20260502102906 | 22 | 0.0 | 0.0 | 0.00 | 0.00 | 0.00 | 36 | 1022.9 | |
| 20260502101904 | 21 | 0.0 | 0.0 | 0.00 | 0.00 | 0.00 | 39 | 1023.1 | |
| 20260502100905 | 21 | 0.0 | 0.0 | 0.00 | 0.00 | 0.00 | 40 | 1023.4 | |
| 20260502090905 | 18 | 0.0 | 0.0 | 0.00 | 0.00 | 0.00 | 46 | 1024.3 | |
| 20260502070905 | 13 | 0.0 | 0.0 | 0.00 | 0.00 | 0.00 | 54 | 1025.4 | |
| 20260502065904 | 13 | 0.0 | 0.0 | 0.00 | 0.00 | 0.00 | 55 | 1025.6 | |
| 20260502064914 | 13 | 0.0 | 0.0 | 0.00 | 0.00 | 0.00 | 56 | 1025.6 | |
| 20260502062904 | 13 | 0.0 | 0.0 | 0.00 | 0.00 | 0.00 | 58 | 1025.7 | |
| 20260502061905 | 12 | 0.0 | 0.0 | 0.00 | 0.00 | 0.00 | 59 | 1025.7 | |
| 20260502060909 | 12 | 0.0 | 0.0 | 0.00 | 0.00 | 0.00 | 60 | 1025.8 | |
| 20260502054905 | 12 | 0.0 | 0.0 | 0.00 | 0.00 | 0.00 | 61 | 1025.9 | |
| 20260502053904 | 12 | 0.0 | 0.0 | 0.00 | 0.00 | 0.00 | 60 | 1026.0 |